Location: Andershausen
(51.8462°N, 9.8595°E)
Time: 00:18:42
(UTC+00:00)

Okean 2 Rocket - Pass Details

Date: 18 November 2025
Orbit: 610 x 635 km, 82.5° (Epoch: 04 December)

Event Time Altitude Azimuth Distance (km) Brightness Sun altitude
Rises 17:11:41 0° 169° (S) 2,884 6.5 -16.0°
Reaches altitude 10° 17:13:59 10° 163° (SSE) 1,979 5.6 -16.4°
Maximum altitude 17:18:06 41° 93° (E) 895 3.4 -17.0°
Enters shadow 17:20:01 26° 41° (NE) 1,219 4.1 -17.3°
